ONEWEB-0157, 48055

Orbit data source: Space-Track

ONEWEB-0157, 48055 is a payload satellite owned by One Web (NAA) (UK) in LEO that was launched on Thu, 25 Mar 2021 UTC via a SOYUZ-2-1B launch vehicle from the Vostochny Cosmodrome (VOSTO). Payload-class satellites include a variety of spacecraft equipped with specific instruments for various scientific and technological missions. These include communications satellites like Starlink; space stations such as the ISS; scientific satellites like the Hubble; Earth observation satellites from companies like Planet Labs, Umbra, and HawkEye 360; GPS; miniature CubeSats for education and research; and military/defense satellites.

Loading next visibility...
Identifier
48055, 2021-025P
Orbit
LEO
Country
Flag of UKUK
Related business
Manufacturer
One Web
Mission
Operational Commercial Communications
Bus & Motor
ARROW, Unknown motor
Mass
148 kg wet, ~140 kg dry
Launch date (UTC)
2021-03-25 (5 years ago)
Launch vehicle
SOYUZ-2-1B
Launch site
Vostochny Cosmodrome (VOSTO)
Object type
Payload
Rocket body
Debris
Shape & HBR
Trap Box + 2 Pan, 6.7 m
Radar Cross Section
3.464 m², Large (>1 m²)

Expand to show TLE details & history
Last TLE update: 2 days ago

TLE from 2 days ago
0 ONEWEB-0157
1 48055U 21025P   26171.35317292 -.00000191  00000-0 -55864-3 0  9995
2 48055  87.8963 319.5919 0002142 105.1716 254.9650 13.13469618253982
Epoch: 2026-06-20T08:28Z
TLE epoch observation values (Epoch: 2026-06-20T08:28:34.140Z)
Latitude
-0.00003°
Longitude
-76.11937°
Altitude
1,213.081 km
Speed
7.247 km/s
True Right ascension
21h 18m 22s
True Declination
0° 00' 00"
Sunlit
Object was in full shadow at epoch
Visualization orbit readout
Latitude
Unknown
Longitude
Unknown
Altitude
Unknown
Speed
Unknown
Apparent Right ascension
Unknown
Apparent Declination
Unknown
Sunlit
N/A
Visualization observer readout
Local Sidereal Time
23:08:21
Azimuth
Unknown
Elevation
Unknown
Doppler factor
Unknown
Orbital elements
Apogee altitude
1,208.507 km
Perigee altitude
1,205.257 km
Semi-major axis
7,585.019 km
Eccentricity
0.00021
Inclination
87.8963°
RAAN
319.5919°
Arg. of periapsis
105.1716°
True anomaly
254.9413°
Mean anomaly
254.965°
Eccentric anomaly
254.95315°
Mean motion
3.28555 °/min
Orbital period
109.57 mins
BSTAR
-0.00055864
Loading maneuver chart data...
Computing Atmospheric mass density...
Loading historical data...
Loading historical data...
Loading historical data...
Loading historical data...
Loading historical data...
Loading historical data...
Loading historical data...

Documentation

Showing up to 5 results
|